Location: Gro� Glienicke
(52.4675°N, 13.1079°E)
Time: 08:39:44
(UTC+00:00)

Cosmos 44 Rocket - Pass Details

Date: 06 July 2020
Orbit: 651 x 739 km, 65.1° (Epoch: 04 August)

Event Time Altitude Azimuth Distance (km) Brightness Sun altitude
Exits shadow 23:32:08 22° 160° (SSE) 1,435 4.4 -14.9°
Maximum altitude 23:34:09 31° 118° (ESE) 1,166 4.2 -14.8°
Drops below altitude 10° 23:38:18 10° 57° (ENE) 2,103 6.3 -14.8°
Sets 23:40:51 0° 48° (NE) 3,035 7.4 -14.7°
